Regional Weather Roundup
Issued by NWS

Home | Current Version | Previous Version | Text Only | Print | Product List | Glossary Off
Versions: 1 2 3 4 5 6 7 8 9 10 11 12 13 14 15 16 17 18 19 20 21 22 23 24 25 26 27 28 29 30 31 32 33 34 35 36 37 38 39 40 41 42 43 44 45 46 47 48 49 50

000
ASUS43 KIND 292259
RWRIN

WEATHER ROUNDUP FOR INDIANA
NATIONAL WEATHER SERVICE INDIANAPOLIS IN
700 PM EDT MON MAY 29 2017

NOTE: "FAIR" INDICATES FEW OR NO CLOUDS BELOW 12,000 FEET WITH NO
SIGNIFICANT WEATHER AND/OR OBSTRUCTIONS TO VISIBILITY.

* - STATION DOES NOT REPORT WEATHER SUCH AS PRECIPITATION OR FOG.

+ - STATION NOT QUALITY CONTROLLED BY THE NATIONAL WEATHER SERVICE.
    USE DATA WITH CAUTION...ESPECIALLY DEWPOINT AND RELATIVE
    HUMIDITY OBSERVATIONS.

INZ001>003-010>013-019-020-300000-
NORTHWEST INDIANA

CITY           SKY/WX    TMP DP  RH WIND       PRES   REMARKS
GARY /AIRPORT/ MOSUNNY   77  34  20 W20       29.85R
MICHIGAN CITY+ MOSUNNY   72  43  35 W9G16     29.85S
MONTICELLO +   PTSUNNY   78  46  31 W14       29.85S
RENSSELAER +   PTSUNNY   75  34  22 W15G21    29.86S

$$

LMZ046-743>745-300000-
SOUTHERN LAKE MICHIGAN

STATION/POSITION TIME  TEMP    WIND        PRES    WAVE
                       AIR SEA DIR/SP/G            HT
                 (UTC) (F)     (DEG/KT/KT) (MB)    (FT)
BURNS HARBOR     2240   67     280/ 13/ 15 1010.8R
MICHIGAN CITY    2230   66     260/ 16/ 17   N/A
5NW MICH CITY    2250   61 56  300/ 10/ 12   N/A     2

$$

INZ004-005-014>016-021>024-300000-
NORTH CENTRAL INDIANA

CITY           SKY/WX    TMP DP  RH WIND       PRES   REMARKS
GOSHEN         CLOUDY    73  47  39 W15       29.83S
PERU/GRISSOM   MOSUNNY   77  49  36 W10       29.84F
SOUTH BEND     MOSUNNY   72  43  35 NW17      29.85R
WARSAW +       CLOUDY    73  46  38 W12G20    29.84S

$$

INZ006>009-017-018-025>027-300000-
NORTHEAST INDIANA

CITY           SKY/WX    TMP DP  RH WIND       PRES   REMARKS
ANGOLA *+      MOSUNNY   75  48  38 W12       29.82F
FORT WAYNE     LGT RAIN  73  53  49 W14       29.85F
KENDALLVILLE + CLOUDY    74  46  36 SW14G22   29.84F

$$

INZ028-029-035-036-043>045-051>053-300000-
WEST CENTRAL INDIANA

CITY           SKY/WX    TMP DP  RH WIND       PRES   REMARKS
GREENCASTLE +  PTSUNNY   79  48  34 SW5       29.89S
LAFAYETTE      MOSUNNY   77  47  34 W15G24    29.85S
TERRE HAUTE    MOSUNNY   81  47  30 SW14      29.87F

$$

INZ030>032-037>040-046>048-054>057-064-065-300000-
CENTRAL INDIANA

CITY           SKY/WX    TMP DP  RH WIND       PRES   REMARKS
CP ATTERBURY + SUNNY     79  54  41 SW12      29.89S
COLUMBUS       SUNNY     81  45  28 SW13      29.89F
GREENWOOD *+   MOSUNNY   80  48  32 W13       29.88F
INDIANAPOLIS   PTSUNNY   77  48  35 W10       29.87S
-EAGLE CREEK   PTSUNNY   79  46  31 VRB3G16   29.86F
KOKOMO +       MOSUNNY   79  50  36 W15       29.86F
SHELBYVILLE    MOSUNNY   80  54  40 SW13      29.87F

$$

INZ033-034-041-042-049-050-058-059-300000-
EAST CENTRAL INDIANA

CITY           SKY/WX    TMP DP  RH WIND       PRES   REMARKS
MUNCIE         MOSUNNY   80  45  28 W12       29.86F
RICHMOND +     MOSUNNY   77  54  44 SW8       29.91F

$$

INZ060-061-067>069-081>083-085>088-300000-
SOUTHWEST INDIANA

CITY           SKY/WX    TMP DP  RH WIND       PRES   REMARKS
EVANSVILLE     MOSUNNY   84  45  25 W8        29.91S
HUNTINGBURG *+ MOSUNNY   81  57  43 SW10      29.91F

$$

INZ062-063-066-070>080-084-089>092-300000-
SOUTH CENTRAL AND SOUTHEAST INDIANA

CITY           SKY/WX    TMP DP  RH WIND       PRES   REMARKS
BLOOMINGTON    SUNNY     82  44  26 W8        29.89S
MADISON *+     MOSUNNY   79  48  34 SW7       29.94S
SEYMOUR +      SUNNY     82  55  39 SW14      29.90S

$$





USA.gov is the U.S. government's official web portal to all federal, state and local government web resources and services.